Tracking 29892 objects as of 21-Nov-2024
HD Live streaming from Space Station
objects crossing your sky now

STARLINK-1769

Track STARLINK-1769 now!
10-day predictions
STARLINK-1769 is classified as:


NORAD ID: 46382
Int'l Code: 2020-062BK
Perigee: 553.3 km
Apogee: 555.4 km
Inclination: 53.1 °
Period: 95.6 minutes
Semi major axis: 6925 km
RCS: Unknown
Launch date: September 3, 2020
Source: United States (US)
Launch site: AIR FORCE EASTERN TEST RANGE (AFETR)
Your satellite tracking list
Your tracking list is empty




NASA's NSSDC Master Catalog

Two Line Element Set (TLE):
1 46382U 20062BK  24325.37939297  .00001321  00000-0  10752-3 0  9993
2 46382  53.0543 300.8762 0001522  88.8948 271.2215 15.06404263233454
Source of the keplerian elements: AFSPC